| time (UTC) | temp C | wind direction | speed KPH | gust KPH | rain 1hr cm | rain 24hr cm | rain mn cm | humidity % | barometer mb |
| 20260831094515 | 26 | 60 | 1.6 | 6.4 | 0.00 | 0.00 | 0.00 | 37 | 1020.4 |
| 20260831093516 | 25 | 33 | 1.6 | 6.4 | 0.00 | 0.00 | 0.00 | 38 | 1020.4 |
| 20260831092516 | 25 | 32 | 4.8 | 11.3 | 0.00 | 0.00 | 0.00 | 38 | 1020.4 |
| 20260831091515 | 24 | 51 | 3.2 | 9.7 | 0.00 | 0.00 | 0.00 | 39 | 1020.3 |
| 20260831090516 | 24 | 70 | 4.8 | 9.7 | 0.00 | 0.00 | 0.00 | 40 | 1020.3 |
| 20260831085555 | 23 | 38 | 4.8 | 11.3 | 0.00 | 0.00 | 0.00 | 41 | 1020.2 |
| 20260831084515 | 23 | 38 | 6.4 | 11.3 | 0.00 | 0.00 | 0.00 | 42 | 1020.2 |
| 20260831083515 | 22 | 45 | 8.0 | 14.5 | 0.00 | 0.00 | 0.00 | 43 | 1020.2 |
| 20260831082515 | 22 | 40 | 6.4 | 14.5 | 0.00 | 0.00 | 0.00 | 45 | 1020.1 |
| 20260831081556 | 22 | 46 | 6.4 | 11.3 | 0.00 | 0.00 | 0.00 | 46 | 1020.1 |
| 20260831080516 | 21 | 39 | 6.4 | 16.1 | 0.00 | 0.00 | 0.00 | 48 | 1020.1 |
| 20260831075516 | 21 | 45 | 8.0 | 14.5 | 0.00 | 0.00 | 0.00 | 49 | 1019.9 |
| 20260831074516 | 21 | 49 | 8.0 | 14.5 | 0.00 | 0.00 | 0.00 | 49 | 1019.9 |
| 20260831073636 | 20 | 52 | 4.8 | 12.9 | 0.00 | 0.00 | 0.00 | 50 | 1019.8 |
| 20260831072516 | 20 | 57 | 6.4 | 12.9 | 0.00 | 0.00 | 0.00 | 52 | 1019.7 |
| 20260831071516 | 20 | 47 | 6.4 | 14.5 | 0.00 | 0.00 | 0.00 | 53 | 1019.7 |
| 20260831070555 | 19 | 49 | 8.0 | 12.9 | 0.00 | 0.00 | 0.00 | 54 | 1019.7 |
| 20260831065516 | 19 | 53 | 8.0 | 14.5 | 0.00 | 0.00 | 0.00 | 55 | 1019.6 |
| 20260831064515 | 19 | 55 | 4.8 | 9.7 | 0.00 | 0.00 | 0.00 | 55 | 1019.7 |
| 20260831063516 | 19 | 78 | 3.2 | 8.0 | 0.00 | 0.00 | 0.00 | 56 | 1019.8 |
| 20260831062516 | 18 | 73 | 3.2 | 9.7 | 0.00 | 0.00 | 0.00 | 57 | 1019.8 |
| 20260831061615 | 18 | 71 | 3.2 | 6.4 | 0.00 | 0.00 | 0.00 | 57 | 1019.7 |
| 20260831060515 | 18 | 76 | 3.2 | 6.4 | 0.00 | 0.00 | 0.00 | 57 | 1019.5 |
| 20260831055515 | 18 | 70 | 4.8 | 11.3 | 0.00 | 0.00 | 0.00 | 56 | 1019.4 |
| 20260831054556 | 18 | 61 | 3.2 | 9.7 | 0.00 | 0.00 | 0.00 | 56 | 1019.4 |
| 20260831053555 | 18 | 78 | 3.2 | 6.4 | 0.00 | 0.00 | 0.00 | 56 | 1019.4 |
| 20260831052516 | 18 | 58 | 3.2 | 8.0 | 0.00 | 0.00 | 0.00 | 56 | 1019.5 |
| 20260831051515 | 18 | 79 | 3.2 | 6.4 | 0.00 | 0.00 | 0.00 | 56 | 1019.4 |
| 20260831050516 | 18 | 82 | 1.6 | 4.8 | 0.00 | 0.00 | 0.00 | 56 | 1019.4 |
| 20260831045516 | 18 | 91 | 1.6 | 4.8 | 0.00 | 0.00 | 0.00 | 56 | 1019.4 |
| 20260831044556 | 18 | 77 | 1.6 | 6.4 | 0.00 | 0.00 | 0.00 | 56 | 1019.4 |
| 20260831043516 | 19 | 76 | 3.2 | 6.4 | 0.00 | 0.00 | 0.00 | 55 | 1019.4 |
| 20260831042516 | 19 | 77 | 3.2 | 6.4 | 0.00 | 0.00 | 0.00 | 55 | 1019.4 |
| 20260831041515 | 19 | 0.0 | 4.8 | 0.00 | 0.00 | 0.00 | 54 | 1019.4 | |
| 20260831040556 | 19 | 78 | 3.2 | 4.8 | 0.00 | 0.00 | 0.00 | 53 | 1019.4 |
| 20260831035516 | 20 | 83 | 4.8 | 6.4 | 0.00 | 0.00 | 0.00 | 53 | 1019.3 |
| 20260831034516 | 20 | 60 | 4.8 | 9.7 | 0.00 | 0.00 | 0.00 | 52 | 1019.3 |
| 20260831033516 | 20 | 78 | 6.4 | 12.9 | 0.00 | 0.00 | 0.00 | 51 | 1019.2 |
| 20260831032516 | 20 | 49 | 6.4 | 11.3 | 0.00 | 0.00 | 0.00 | 52 | 1019.1 |
| 20260831031516 | 20 | 59 | 4.8 | 9.7 | 0.00 | 0.00 | 0.00 | 52 | 1019.1 |
| 20260831030515 | 20 | 51 | 3.2 | 6.4 | 0.00 | 0.00 | 0.00 | 52 | 1019.2 |
| 20260831025636 | 20 | 56 | 1.6 | 6.4 | 0.00 | 0.00 | 0.00 | 51 | 1019.2 |
| 20260831024516 | 20 | 46 | 3.2 | 6.4 | 0.00 | 0.00 | 0.00 | 51 | 1019.2 |
| 20260831023516 | 21 | 79 | 3.2 | 8.0 | 0.00 | 0.00 | 0.00 | 50 | 1019.2 |
| 20260831022516 | 21 | 77 | 3.2 | 8.0 | 0.00 | 0.00 | 0.00 | 51 | 1019.1 |
| 20260831021516 | 21 | 47 | 4.8 | 9.7 | 0.00 | 0.00 | 0.00 | 50 | 1019.0 |
| 20260831020516 | 21 | 53 | 4.8 | 9.7 | 0.00 | 0.00 | 0.00 | 50 | 1019.0 |
| 20260831015516 | 21 | 51 | 6.4 | 12.9 | 0.00 | 0.00 | 0.00 | 49 | 1019.1 |
| 20260831014516 | 21 | 52 | 6.4 | 11.3 | 0.00 | 0.00 | 0.00 | 48 | 1019.0 |
| 20260831013516 | 22 | 50 | 8.0 | 11.3 | 0.00 | 0.00 | 0.00 | 48 | 1018.9 |
| 20260831012516 | 22 | 46 | 4.8 | 6.4 | 0.00 | 0.00 | 0.00 | 47 | 1019.0 |
| 20260831011556 | 22 | 46 | 4.8 | 8.0 | 0.00 | 0.00 | 0.00 | 47 | 1019.0 |
| 20260831010516 | 22 | 45 | 4.8 | 8.0 | 0.00 | 0.00 | 0.00 | 47 | 1018.9 |
| 20260831005516 | 22 | 0.0 | 1.6 | 0.00 | 0.00 | 0.00 | 47 | 1019.0 | |
| 20260831004516 | 22 | 239 | 1.6 | 3.2 | 0.00 | 0.00 | 0.00 | 47 | 1018.9 |
| 20260831003556 | 22 | 239 | 1.6 | 3.2 | 0.00 | 0.00 | 0.00 | 48 | 1018.8 |
| 20260831002516 | 21 | 0.0 | 0.0 | 0.00 | 0.00 | 0.00 | 48 | 1018.7 | |
| 20260831001516 | 21 | 0.0 | 0.0 | 0.00 | 0.00 | 0.00 | 49 | 1018.7 | |
| 20260831000556 | 21 | 0.0 | 0.0 | 0.00 | 0.00 | 0.00 | 49 | 1018.8 | |
| 20260830235515 | 22 | 0.0 | 0.0 | 0.00 | 0.00 | 0.00 | 48 | 1018.8 | |
| 20260830234515 | 22 | 0.0 | 0.0 | 0.00 | 0.00 | 0.00 | 47 | 1018.7 | |
| 20260830233516 | 22 | 0.0 | 0.0 | 0.00 | 0.00 | 0.00 | 47 | 1018.6 | |
| 20260830232516 | 22 | 0.0 | 0.0 | 0.00 | 0.00 | 0.00 | 47 | 1018.6 | |
| 20260830231555 | 22 | 0.0 | 0.0 | 0.00 | 0.00 | 0.00 | 46 | 1018.7 | |
| 20260830230516 | 22 | 0.0 | 0.0 | 0.00 | 0.00 | 0.00 | 46 | 1018.5 | |
| 20260830225515 | 23 | 0.0 | 0.0 | 0.00 | 0.00 | 0.00 | 46 | 1018.4 | |
| 20260830224515 | 23 | 0.0 | 0.0 | 0.00 | 0.00 | 0.00 | 44 | 1018.4 | |
| 20260830223515 | 23 | 0.0 | 0.0 | 0.00 | 0.00 | 0.00 | 43 | 1018.4 | |
| 20260830222515 | 23 | 0.0 | 0.0 | 0.00 | 0.00 | 0.00 | 42 | 1018.3 | |
| 20260830221555 | 24 | 0.0 | 0.0 | 0.00 | 0.00 | 0.00 | 41 | 1018.2 | |
| 20260830220515 | 25 | 239 | 1.6 | 3.2 | 0.00 | 0.00 | 0.00 | 40 | 1018.1 |
| 20260830215515 | 25 | 239 | 3.2 | 4.8 | 0.00 | 0.00 | 0.00 | 39 | 1018.0 |
| 20260830214515 | 25 | 239 | 3.2 | 6.4 | 0.00 | 0.00 | 0.00 | 38 | 1018.0 |
| 20260830213515 | 25 | 225 | 3.2 | 6.4 | 0.00 | 0.00 | 0.00 | 37 | 1017.9 |
| 20260830212515 | 26 | 241 | 3.2 | 4.8 | 0.00 | 0.00 | 0.00 | 37 | 1017.9 |
| 20260830211555 | 26 | 263 | 0.0 | 3.2 | 0.00 | 0.00 | 0.00 | 37 | 1017.9 |
| 20260830210515 | 26 | 263 | 0.0 | 4.8 | 0.00 | 0.00 | 0.00 | 36 | 1017.7 |
| 20260830205555 | 26 | 271 | 3.2 | 8.0 | 0.00 | 0.00 | 0.00 | 35 | 1017.7 |
| 20260830204516 | 26 | 272 | 3.2 | 6.4 | 0.00 | 0.00 | 0.00 | 35 | 1017.6 |
| 20260830203556 | 26 | 255 | 1.6 | 8.0 | 0.00 | 0.00 | 0.00 | 35 | 1017.5 |
| 20260830202515 | 27 | 265 | 3.2 | 6.4 | 0.00 | 0.00 | 0.00 | 34 | 1017.4 |
| 20260830201555 | 27 | 263 | 3.2 | 8.0 | 0.00 | 0.00 | 0.00 | 33 | 1017.3 |
| 20260830200516 | 27 | 255 | 3.2 | 9.7 | 0.00 | 0.00 | 0.00 | 33 | 1017.1 |
| 20260830195556 | 27 | 268 | 3.2 | 8.0 | 0.00 | 0.00 | 0.00 | 32 | 1017.0 |
| 20260830194515 | 28 | 267 | 3.2 | 8.0 | 0.00 | 0.00 | 0.00 | 32 | 1016.9 |
| 20260830193516 | 28 | 260 | 3.2 | 8.0 | 0.00 | 0.00 | 0.00 | 31 | 1016.7 |
| 20260830192515 | 28 | 269 | 4.8 | 9.7 | 0.00 | 0.00 | 0.00 | 30 | 1016.6 |
| 20260830191515 | 28 | 268 | 4.8 | 9.7 | 0.00 | 0.00 | 0.00 | 29 | 1016.6 |
| 20260830190515 | 29 | 276 | 1.6 | 12.9 | 0.00 | 0.00 | 0.00 | 29 | 1016.4 |
| 20260830185516 | 29 | 270 | 4.8 | 12.9 | 0.00 | 0.00 | 0.00 | 29 | 1016.3 |
| 20260830184515 | 30 | 266 | 6.4 | 14.5 | 0.00 | 0.00 | 0.00 | 28 | 1016.3 |
| 20260830183515 | 30 | 264 | 6.4 | 14.5 | 0.00 | 0.00 | 0.00 | 27 | 1016.2 |
| 20260830182515 | 31 | 268 | 6.4 | 17.7 | 0.00 | 0.00 | 0.00 | 25 | 1016.2 |
| 20260830181556 | 31 | 261 | 6.4 | 20.9 | 0.00 | 0.00 | 0.00 | 25 | 1016.2 |
| 20260830180635 | 31 | 267 | 8.0 | 20.9 | 0.00 | 0.00 | 0.00 | 24 | 1016.2 |
| 20260830175556 | 31 | 264 | 8.0 | 20.9 | 0.00 | 0.00 | 0.00 | 24 | 1016.3 |
| 20260830174516 | 31 | 263 | 8.0 | 20.9 | 0.00 | 0.00 | 0.00 | 23 | 1016.3 |
| 20260830173516 | 31 | 264 | 8.0 | 19.3 | 0.00 | 0.00 | 0.00 | 24 | 1016.2 |
| 20260830172515 | 31 | 261 | 11.3 | 20.9 | 0.00 | 0.00 | 0.00 | 24 | 1016.3 |
| 20260830171516 | 32 | 270 | 14.5 | 22.5 | 0.00 | 0.00 | 0.00 | 23 | 1016.4 |
| 20260830170516 | 32 | 270 | 11.3 | 20.9 | 0.00 | 0.00 | 0.00 | 22 | 1016.5 |
| 20260830165515 | 32 | 261 | 11.3 | 22.5 | 0.00 | 0.00 | 0.00 | 22 | 1016.4 |
| 20260830164516 | 32 | 269 | 12.9 | 30.6 | 0.00 | 0.00 | 0.00 | 22 | 1016.5 |
| 20260830163516 | 32 | 258 | 11.3 | 24.1 | 0.00 | 0.00 | 0.00 | 22 | 1016.4 |
| 20260830162516 | 32 | 253 | 11.3 | 22.5 | 0.00 | 0.00 | 0.00 | 22 | 1016.4 |
| 20260830161556 | 32 | 268 | 9.7 | 19.3 | 0.00 | 0.00 | 0.00 | 22 | 1016.5 |
| 20260830160556 | 32 | 269 | 11.3 | 22.5 | 0.00 | 0.00 | 0.00 | 23 | 1016.7 |
| 20260830155515 | 32 | 257 | 11.3 | 20.9 | 0.00 | 0.00 | 0.00 | 23 | 1016.8 |
| 20260830154515 | 32 | 267 | 12.9 | 25.7 | 0.00 | 0.00 | 0.00 | 23 | 1016.8 |
| 20260830153515 | 32 | 261 | 12.9 | 29.0 | 0.00 | 0.00 | 0.00 | 24 | 1016.8 |
| 20260830152515 | 32 | 265 | 8.0 | 25.7 | 0.00 | 0.00 | 0.00 | 24 | 1016.9 |
| 20260830151516 | 32 | 265 | 11.3 | 20.9 | 0.00 | 0.00 | 0.00 | 24 | 1016.9 |
| 20260830150516 | 32 | 268 | 11.3 | 25.7 | 0.00 | 0.00 | 0.00 | 24 | 1017.1 |
| 20260830145516 | 32 | 247 | 8.0 | 24.1 | 0.00 | 0.00 | 0.00 | 24 | 1017.2 |
| 20260830144516 | 32 | 235 | 11.3 | 27.4 | 0.00 | 0.00 | 0.00 | 24 | 1017.3 |
| 20260830143516 | 31 | 274 | 9.7 | 17.7 | 0.00 | 0.00 | 0.00 | 25 | 1017.5 |
| 20260830142515 | 31 | 253 | 11.3 | 24.1 | 0.00 | 0.00 | 0.00 | 25 | 1017.6 |
| 20260830141516 | 31 | 254 | 9.7 | 22.5 | 0.00 | 0.00 | 0.00 | 26 | 1017.7 |
| 20260830140516 | 31 | 268 | 9.7 | 22.5 | 0.00 | 0.00 | 0.00 | 26 | 1017.8 |
| 20260830135516 | 31 | 264 | 8.0 | 20.9 | 0.00 | 0.00 | 0.00 | 26 | 1017.9 |
| 20260830134516 | 31 | 267 | 11.3 | 25.7 | 0.00 | 0.00 | 0.00 | 26 | 1018.0 |
| 20260830133516 | 31 | 245 | 8.0 | 19.3 | 0.00 | 0.00 | 0.00 | 27 | 1018.0 |
| 20260830132516 | 30 | 264 | 11.3 | 27.4 | 0.00 | 0.00 | 0.00 | 27 | 1018.1 |
| 20260830131556 | 31 | 248 | 8.0 | 29.0 | 0.00 | 0.00 | 0.00 | 27 | 1018.2 |
| 20260830130516 | 30 | 272 | 9.7 | 20.9 | 0.00 | 0.00 | 0.00 | 27 | 1018.4 |
| 20260830125516 | 30 | 271 | 6.4 | 19.3 | 0.00 | 0.00 | 0.00 | 28 | 1018.4 |
| 20260830124516 | 30 | 274 | 8.0 | 16.1 | 0.00 | 0.00 | 0.00 | 27 | 1018.6 |
| 20260830123516 | 30 | 268 | 8.0 | 16.1 | 0.00 | 0.00 | 0.00 | 28 | 1018.6 |
| 20260830122556 | 30 | 277 | 8.0 | 17.7 | 0.00 | 0.00 | 0.00 | 28 | 1018.8 |
| 20260830121516 | 29 | 272 | 6.4 | 17.7 | 0.00 | 0.00 | 0.00 | 29 | 1018.8 |
| 20260830120516 | 29 | 269 | 9.7 | 20.9 | 0.00 | 0.00 | 0.00 | 28 | 1018.9 |
| 20260830115556 | 30 | 280 | 8.0 | 20.9 | 0.00 | 0.00 | 0.00 | 28 | 1019.0 |
| 20260830114516 | 29 | 273 | 6.4 | 17.7 | 0.00 | 0.00 | 0.00 | 29 | 1019.0 |
| 20260830113516 | 29 | 261 | 9.7 | 17.7 | 0.00 | 0.00 | 0.00 | 29 | 1019.2 |
| 20260830111516 | 28 | 257 | 4.8 | 11.3 | 0.00 | 0.00 | 0.00 | 31 | 1019.2 |
| 20260830110516 | 28 | 211 | 6.4 | 12.9 | 0.00 | 0.00 | 0.00 | 31 | 1019.3 |
| 20260830105516 | 27 | 252 | 4.8 | 12.9 | 0.00 | 0.00 | 0.00 | 32 | 1019.5 |
| 20260830104516 | 27 | 221 | 4.8 | 11.3 | 0.00 | 0.00 | 0.00 | 33 | 1019.5 |
| 20260830103516 | 27 | 246 | 3.2 | 11.3 | 0.00 | 0.00 | 0.00 | 34 | 1019.7 |
| 20260830102516 | 26 | 161 | 1.6 | 8.0 | 0.00 | 0.00 | 0.00 | 34 | 1019.6 |
| 20260830101516 | 26 | 168 | 4.8 | 9.7 | 0.00 | 0.00 | 0.00 | 35 | 1019.7 |
| 20260830100516 | 25 | 284 | 1.6 | 6.4 | 0.00 | 0.00 | 0.00 | 35 | 1019.7 |
| 20260830095516 | 25 | 253 | 3.2 | 8.0 | 0.00 | 0.00 | 0.00 | 36 | 1019.6 |